FLOCK 4G 15

导读

FLOCK 4G 15是美国发射的一颗商用遥感小卫星,属于Flock系列地球观测卫星星座,该星座由Planet Labs公司运营,主打高分辨率对地成像。该星于2025年1月14日发射入轨,延续了Flock系列卫星的紧凑设计,将持续获取全球高分辨率地表影像,服务于农业监测、城市规划、灾害评估、生态保护等多个领域,补充星座观测能力,提升对全球热点区域的重访频率,为商用遥感数据市场提供更及时的对地观测服务。

Basic Information
目录编号:
62678
目录名称:
FLOCK 4G 15
国际标识:
2025-009BX
轨道中心:
EARTH
卫星名称:
FLOCK 4G 15
卫星全名:
FLOCK 4G 15
卫星状态:
在轨 (已飞行598 天)
发射日期:
2025-01-14 UTC
国别 :
美国 (US)
星等 :
--
Orbit Information
数据来源 国际轨道数据
星历时间: 2026-09-04T12:00:37+0800
4小时前
查看轨道信息
半长轴: 6851.313km
偏心率: 0.000556
轨道倾角: 97.397°
近地点辐角 51.462°
升交点赤经 328.743°
平近点角 308.712°
近地点: 469.366km
远地点: 476.986km
周期: 94.063分钟
每日圈数: 15.308832
Detailed Information
使用方式:
暂无
2D Orbit Map
3D Orbit Map
Orbit Altitude Analysis Chart
Orbit Inclination Analysis Chart
Orbit Comprehensive Analysis Chart
View Comprehensive Chart
Conjunction Data List
Event ID Objects TCA Miss Dist (km) Collision Risk Probability Collision Risk Index (CRI) Action
CDM_260906-114905-114206-267821
2026-09-06T
11:49:18+0000
1.444 km
极远距离
7.529511E-6 低风险 0.53
CDM_260905-235905-018606-267821
2026-09-05T
23:59:18+0000
1.717 km
极远距离
4.370359E-6 低风险 0.48
CDM_260828-222205-485606-267822
2026-08-28T
22:22:43+0000
1.639 km
极远距离
4.267719E-6 低风险 0.48
CDM_260905-174805-379406-267821
2026-09-05T
17:48:18+0000
2.209 km
极远距离
2.223789E-6 低风险 0.42
CDM_260906-074604-830106-267821
2026-09-06T
07:46:46+0000
1.944 km
极远距离
1.704061E-6 低风险 0.4
CDM_260903-224105-990306-267822
2026-09-03T
22:41:01+0000
2.491 km
极远距离
1.660306E-6 低风险 0.39
CDM_260904-155406-252706-267821
2026-09-04T
15:54:02+0000
2.455 km
极远距离
1.278469E-6 低风险 0.37
CDM_260904-071006-001606-267821
2026-09-04T
07:10:01+0000
2.257 km
极远距离
1.222512E-6 低风险 0.37